Voltar ao catálogo

STARLINK-32937

AtivoComunicaçõesVLEO
NORAD 63148·PAYLOAD·🇺🇸 United States

Lançado Mar 3, 2025 de Cape Canaveral Space Force Station

Loading…

Próximas Passagens (próximas 24 horas)

TLE

AtualizadoSource: CelesTrak SupGP

Época: Sep 15, 2026, 03:35 UTC

1 63148C 25043S   26258.14979167  .00007738  00000+0  28029-3 0  2589
2 63148  43.0018  26.2007 0001256 268.4941 266.6334 15.27573010    17

Acompanhe STARLINK-32937 em tempo real com AllMySat

Download on the App Store